Weather Service Report


155 
ASUS42 KRAH 081610
RWRRAH
NORTH CAROLINA WEATHER ROUNDUP
NATIONAL WEATHER SERVICE RALEIGH NC
1100 AM EST MON FEB 08 2016

NOTE: "FAIR" INDICATES FEW OR NO CLOUDS BELOW 12,000 FEET WITH NO
SIGNIFICANT WEATHER AND/OR OBSTRUCTIONS TO VISIBILITY.

NCZ001-053-055-056-065-067-081700-
WESTERN NORTH CAROLINA
  
CITY           SKY/WX    TMP DP  RH WIND       PRES   REMARKS
ASHEVILLE      CLOUDY    37  22  54 CALM      29.71F                  
JEFFERSON      CLOUDY    37  22  55 S6        29.67F WCI  32          
MORGANTON      CLOUDY    39  29  66 CALM      29.76F                  
HICKORY        CLOUDY    37  27  67 CALM      29.72F                  
RUTHERFORDTON  CLOUDY    38  28  67 CALM      29.74F                  
MOUNT AIRY     CLOUDY    40  30  67 CALM      29.75F                  
BOONE          CLOUDY    39  20  47 W6        29.67F WCI  35          
$$
 
NCZ021-022-025-041-071-084-088-081700-
CENTRAL NORTH CAROLINA
  
CITY           SKY/WX    TMP DP  RH WIND       PRES   REMARKS
CHARLOTTE      MOSUNNY   49  25  39 SW8       29.78F                  
GREENSBORO     CLOUDY    46  24  42 SW6       29.75F                  
WINSTON-SALEM  CLOUDY    43  25  49 S3        29.76F                  
RALEIGH-DURHAM PTSUNNY   49  28  44 S7        29.79F                  
FORT BRAGG     SUNNY     50  26  39 S9        29.79F                  
FAYETTEVILLE   SUNNY     50  28  42 S9        29.81F                  
BURLINGTON     MOSUNNY   48  28  46 VRB6      29.77F                  
LAURINBURG     SUNNY     53  27  36 S6        29.81F                  
$$
 
NCZ011-015-027-028-043-044-047-080-103-081700-
NORTHEASTERN NORTH CAROLINA
  
CITY           SKY/WX    TMP DP  RH WIND       PRES   REMARKS
ROCKY MT-WILSO SUNNY     47  21  35 CALM      29.81F                  
GREENVILLE     SUNNY     45  27  49 CALM      29.85F                  
WASHINGTON     SUNNY     45  29  53 CALM      29.82F                  
ELIZABETH CITY SUNNY     45  32  60 N8        29.80R                  
MANTEO         SUNNY     43  33  65 NW10G16   29.80R                  
CAPE HATTERAS  SUNNY     45  32  60 NW9       29.81R                  
$$
 
NCZ078-087-090-091-093-098-101-081700-
SOUTHEASTERN NORTH CAROLINA
  
CITY           SKY/WX    TMP DP  RH WIND       PRES   REMARKS
LUMBERTON      SUNNY     51  31  46 S9        29.81F                  
GOLDSBORO      SUNNY     48  27  43 VRB2      29.81F                  
KINSTON        SUNNY     48  25  40 CALM      29.83F                  
KENANSVILLE      N/A     47  27  45 CALM      29.85F                  
NEW BERN       SUNNY     48  27  44 W5        29.84F                  
CHERRY POINT   SUNNY     49  27  42 W9        29.84F                  
BEAUFORT       SUNNY     46  30  53 W8        29.84S                  
JACKSONVILLE   SUNNY     49  25  39 NW3       29.84F                  
WILMINGTON     SUNNY     50  30  46 CALM      29.86F                  
$$

  

Return to Home page


Western Regional Climate Center, wrcc@dri.edu